[[{"header":{"parameterUnit":"m.s-1","parameterCategory":1,"la1":30.2991,"la2":30.254,"lo1":-89.0895,"lo2":-89.0444,"dy":0.0017,"dx":0.0017,"nx":28,"ny":28,"refTime":"2024-02-07T09:00:00:Z","depth":0,"parameterNumber":2,"parameterNumberName":"U-component_of_WINDS"},"data":[0,0,0,0,0,0,0,0,0,0,0,0,0,0,0,0,0,0,0,0,0,0,0,0,0,0,0,0,0,0,0,0,0,0,0,0,0,0,0,0,0,0,0,0,0,0,0,0,0,0,0,0,0,0,0,0,0,0,-3.513,-3.513,0,-3.5139,-3.5139,-3.5139,-3.5088,-3.5087,-3.5085,-3.5084,-3.5094,-3.5096,-3.5097,0,0,0,0,0,0,0,0,0,0,0,0,0,-3.507,-3.5071,-3.513,-3.513,-3.513,-3.5139,-3.5139,-3.5139,-3.5088,-3.5087,-3.5085,-3.5083,-3.5093,-3.5095,-3.5097,0,0,0,0,0,0,0,0,0,0,0,0,0,-3.5089,-3.5072,-3.513,-3.5106,-3.5104,-3.5139,-3.5139,-3.5139,-3.5089,-3.5087,-3.5084,-3.5082,-3.5093,-3.5095,-3.5098,-3.5157,0,0,-3.5105,-3.5106,0,0,0,0,0,0,0,0,-3.5088,-3.5091,-3.5109,-3.5107,-3.5105,-3.511,-3.5122,-3.5145,-3.5089,-3.5094,-3.5084,-3.5081,-3.5101,-3.5103,-3.5109,-3.5157,-3.5158,-3.5105,-3.5107,-3.5108,-3.5109,0,0,0,0,0,0,0,-3.5087,-3.5091,-3.5133,-3.5109,-3.5107,-3.5095,-3.5095,-3.5126,-3.511,-3.5094,-3.509,-3.5092,-3.51,-3.5107,-3.5109,-3.5158,-3.5105,-3.5107,-3.5109,-3.511,-3.5255,-3.5257,0,0,0,0,0,0,-3.5089,-3.509,-3.5133,-3.5134,-3.5091,-3.5098,-3.5098,-3.5111,-3.511,-3.5107,-3.5094,-3.5089,-3.5104,-3.5106,-3.5109,-3.5178,-3.5108,-3.511,-3.5112,-3.5253,-3.5256,-3.5258,0,0,0,0,0,0,-3.5087,-3.5093,-3.5133,-3.5111,-3.5115,-3.5101,-3.5116,-3.5112,-3.5119,-3.5109,-3.5107,-3.5104,-3.5102,-3.5106,-3.5145,-3.5178,-3.5111,-3.5113,-3.525,-3.5254,-3.5257,-3.5317,0,0,0,0,0,0,-3.5086,-3.5093,-3.5114,-3.5112,-3.5116,-3.5168,-3.5118,-3.5114,-3.5124,-3.5118,-3.5118,-3.5116,-3.5101,-3.5142,-3.5148,-3.518,-3.5115,-3.5247,-3.5252,-3.5256,-3.5312,-3.5322,-3.5331,0,0,0,0,0,-3.5084,-3.5131,-3.5116,-3.5121,-3.5143,-3.517,-3.5173,-3.5154,-3.5127,-3.5148,-3.5142,-3.5116,-3.5174,-3.5146,-3.5153,-3.5186,-3.5245,-3.525,-3.5255,-3.5307,-3.532,-3.533,0,0,0,0,0,0,-3.5138,-3.513,-3.5113,-3.5161,-3.5166,-3.5161,-3.5188,-3.5167,-3.5181,-3.5175,-3.5152,-3.5152,-3.5196,-3.5195,-3.5165,-3.5244,-3.5205,-3.5212,-3.5242,-3.5254,-3.5263,-3.5262,-3.5117,0,0,0,0,0,-3.5155,-3.5177,-3.517,-3.5212,-3.5216,-3.5202,-3.5213,-3.5198,-3.5203,-3.5205,-3.5202,-3.5208,-3.5228,-3.5241,-3.5258,-3.5312,-3.5311,-3.5338,-3.5348,-3.5356,-3.5361,-3.539,-3.5402,-3.5276,-3.5276,-3.5276,0,0,-3.5191,-3.519,-3.5205,-3.5223,-3.5226,-3.525,-3.5204,-3.5231,-3.5249,-3.521,-3.5246,-3.5245,-3.525,-3.5297,-3.5317,-3.5298,-3.5396,-3.5362,-3.5369,-3.537,-3.5397,-3.5408,-3.5419,-3.528,-3.5279,-3.5278,0,0,-3.5269,-3.527,-3.5306,-3.531,-3.5315,-3.5305,-3.5314,-3.5313,-3.531,-3.5346,-3.5318,-3.5339,-3.5373,-3.5378,-3.5385,-3.5467,-3.5443,-3.5474,-3.5522,-3.555,-3.556,-3.5569,-3.5597,-3.5608,-3.548,-3.548,-3.548,0,-3.5313,-3.5347,-3.5327,-3.5356,-3.5365,-3.5331,-3.5367,-3.5372,-3.5383,-3.539,-3.5368,-3.541,-3.5412,-3.5459,-3.548,-3.5487,-3.5496,-3.5472,-3.556,-3.5569,-3.5576,-3.5603,-3.5614,-3.5483,-3.5483,-3.5482,-3.5482,0,-3.5401,-3.5425,-3.5454,-3.5464,-3.5477,-3.551,-3.5495,-3.551,-3.5495,-3.5488,-3.5527,-3.5527,-3.5544,-3.5555,-3.5541,-3.5601,-3.5589,-3.5564,-3.5524,-3.5592,-3.5617,-3.5627,-3.5488,-3.5487,-3.5486,-3.5485,0,0,-3.551,-3.5511,-3.5521,-3.5526,-3.553,-3.5549,-3.5581,-3.5597,-3.5611,-3.562,-3.5646,-3.5676,-3.5654,-3.5662,-3.5648,-3.5673,-3.5737,-3.5645,-3.5645,-3.5661,-3.5804,-3.5821,-3.5834,-3.5723,-3.5725,-3.5726,-3.5803,0,-3.5585,-3.5638,-3.5622,-3.5676,-3.5698,-3.5668,-3.5696,-3.5701,-3.5697,-3.5716,-3.571,-3.5732,-3.5701,-3.5706,-3.5729,-3.5724,-3.5765,-3.5719,-3.5746,-3.5747,-3.5744,-3.5847,-3.5865,-3.5937,-3.5813,-3.5814,-3.5816,0,-3.5679,-3.5692,-3.5748,-3.5749,-3.5758,-3.5783,-3.5797,-3.5816,-3.5822,-3.5817,-3.5827,-3.5809,-3.584,-3.5802,-3.5846,-3.5814,-3.5825,-3.5825,-3.5827,-3.5828,-3.5784,-3.5849,-3.596,-3.5971,-3.5831,-3.583,-3.5829,0,-3.5752,-3.5784,-3.5822,-3.5827,-3.5829,-3.5847,-3.5849,-3.5853,-3.5865,-3.5878,-3.5885,-3.5902,-3.5911,-3.5925,-3.5912,-3.5885,-3.5958,-3.5918,-3.5954,-3.5954,-3.5969,-3.5968,-3.6082,-3.5979,-3.5978,-3.5978,-3.5978,0,-3.5837,-3.5872,-3.5854,-3.5877,-3.5916,-3.5898,-3.5938,-3.5936,-3.5941,-3.5963,-3.5939,-3.5961,-3.5942,-3.5963,-3.5953,-3.599,-3.5995,-3.5992,-3.5988,-3.5993,-3.5993,-3.5998,-3.5992,-3.5981,-3.598,-3.598,-3.5979,0,-3.5924,-3.5914,-3.5953,-3.5952,-3.5953,-3.5981,-3.5981,-3.6003,-3.5997,-3.6026,-3.6032,-3.6023,-3.6046,-3.6034,-3.6059,-3.6052,-3.61,-3.6091,-3.6098,-3.6094,-3.6131,-3.6127,-3.6251,-3.6266,-3.6154,-3.6155,-3.6156,0,-3.5978,-3.6004,-3.6007,-3.602,-3.6024,-3.6045,-3.6057,-3.6041,-3.6054,-3.6065,-3.6085,-3.6106,-3.6122,-3.616,-3.6156,-3.6175,-3.6165,-3.6207,-3.6167,-3.6171,-3.6164,-3.6162,-3.6164,-3.6214,-3.6216,-3.6217,-3.6217,0,-3.6074,-3.6068,-3.6086,-3.6102,-3.6117,-3.6129,-3.6139,-3.6151,-3.6136,-3.6152,-3.6175,-3.6188,-3.6213,-3.6234,-3.625,-3.6253,-3.6233,-3.6231,-3.6239,-3.6243,-3.6246,-3.6244,-3.6118,-3.6227,-3.6226,-3.6225,-3.6225,-3.6225,-3.6146,-3.6168,-3.6173,-3.6194,-3.62,-3.621,-3.623,-3.6228,-3.6246,-3.6265,-3.6255,-3.6282,-3.6289,-3.6309,-3.6315,-3.6336,-3.6319,-3.6333,-3.6336,-3.6339,-3.6343,-3.6244,-3.6339,-3.6339,-3.6339,-3.6338,-3.6338,0,-3.624,-3.6242,-3.6261,-3.6276,-3.6293,-3.6273,-3.6284,-3.6299,-3.6323,-3.6331,-3.6348,-3.6375,-3.6396,-3.6394,-3.6413,-3.6431,-3.6422,-3.6436,-3.6434,-3.6434,-3.6357,-3.6347,-3.6443,-3.6443,-3.6443,-3.6443,-3.6443,-3.6443,-3.629,-3.6327,-3.6322,-3.6361,-3.6363,-3.6389,-3.6397,-3.6407,-3.6413,-3.6444,-3.6462,-3.646,-3.6465,-3.6485,-3.6503,-3.6502,-3.651,-3.6527,-3.6523,-3.645,-3.644,-3.643,-3.642,-3.6529,-3.6529,-3.6598,-3.6598,-3.6599]},{"header":{"parameterUnit":"m.s-1","parameterCategory":1,"la1":30.2991,"la2":30.254,"lo1":-89.0895,"lo2":-89.0444,"dy":0.0017,"dx":0.0017,"nx":28,"ny":28,"refTime":"2024-02-07T09:00:00:Z","depth":0,"parameterNumber":3,"parameterNumberName":"V-component_of_WINDS"},"data":[0,0,0,0,0,0,0,0,0,0,0,0,0,0,0,0,0,0,0,0,0,0,0,0,0,0,0,0,0,0,0,0,0,0,0,0,0,0,0,0,0,0,0,0,0,0,0,0,0,0,0,0,0,0,0,0,0,0,1.5817,1.5818,0,1.5901,1.5901,1.5902,1.5978,1.5979,1.598,1.5981,1.6069,1.607,1.6071,0,0,0,0,0,0,0,0,0,0,0,0,0,1.5726,1.5728,1.5817,1.5818,1.5819,1.59,1.5902,1.5903,1.5978,1.5979,1.598,1.5981,1.6068,1.607,1.6072,0,0,0,0,0,0,0,0,0,0,0,0,0,1.5783,1.5728,1.5817,1.5867,1.5872,1.59,1.5902,1.5903,1.5978,1.5979,1.5981,1.5982,1.6067,1.607,1.6072,1.6058,0,0,1.6079,1.608,0,0,0,0,0,0,0,0,1.578,1.5787,1.5858,1.5863,1.5869,1.593,1.5902,1.5955,1.5978,1.5938,1.5981,1.5983,1.6022,1.6028,1.604,1.6062,1.6066,1.6079,1.608,1.6081,1.6082,0,0,0,0,0,0,0,1.5776,1.5783,1.585,1.5859,1.5866,1.5886,1.5895,1.5912,1.5971,1.5941,1.5947,1.5956,1.6025,1.6038,1.6043,1.6068,1.6079,1.6081,1.6082,1.6083,1.6086,1.6084,0,0,0,0,0,0,1.5764,1.578,1.5848,1.5853,1.5827,1.5886,1.5897,1.5909,1.5971,1.5982,1.5954,1.5959,1.6034,1.604,1.6046,1.6037,1.6081,1.6083,1.6085,1.6087,1.6085,1.6084,0,0,0,0,0,0,1.5762,1.5769,1.5844,1.5818,1.5829,1.5886,1.59,1.591,1.5924,1.5981,1.5992,1.5957,1.6035,1.6043,1.6055,1.6041,1.6084,1.6086,1.6088,1.6086,1.6085,1.6016,0,0,0,0,0,0,1.5759,1.5768,1.5763,1.5817,1.583,1.585,1.5899,1.5911,1.5927,1.5934,1.5986,1.5996,1.6037,1.6052,1.6057,1.6045,1.6088,1.609,1.6087,1.6085,1.602,1.6012,1.6005,0,0,0,0,0,1.5755,1.574,1.5762,1.577,1.5824,1.5849,1.5857,1.5903,1.5925,1.5921,1.5959,1.5995,1.6041,1.6052,1.6059,1.6047,1.6091,1.6088,1.6085,1.6023,1.6013,1.6005,0,0,0,0,0,0,1.5683,1.5748,1.5773,1.5775,1.5806,1.5862,1.5858,1.5891,1.5917,1.5922,1.5979,1.599,1.5996,1.6023,1.6034,1.6039,1.6071,1.607,1.6021,1.6013,1.6005,1.6,1.609,0,0,0,0,0,1.5667,1.5681,1.5737,1.5733,1.5748,1.58,1.5813,1.5845,1.588,1.5894,1.5932,1.5965,1.5988,1.6002,1.6025,1.6024,1.6037,1.6019,1.6011,1.6005,1.6004,1.6007,1.6,1.6075,1.6075,1.6075,0,0,1.5634,1.5672,1.5677,1.572,1.5748,1.5763,1.5811,1.5824,1.5836,1.5897,1.5911,1.5939,1.5981,1.5986,1.5991,1.6009,1.5986,1.6001,1.5996,1.5998,1.6003,1.5996,1.599,1.6073,1.6073,1.6073,0,0,1.5583,1.5612,1.5613,1.564,1.5682,1.5717,1.5717,1.5768,1.579,1.5805,1.5851,1.5867,1.5903,1.5931,1.595,1.5911,1.5946,1.5917,1.5879,1.5882,1.5876,1.5871,1.5859,1.5854,1.5915,1.5915,1.5915,0,1.5538,1.5561,1.5609,1.562,1.5638,1.5693,1.5696,1.572,1.5767,1.5779,1.5798,1.5847,1.5878,1.5892,1.5883,1.5895,1.5899,1.5912,1.5873,1.5868,1.5865,1.5854,1.5849,1.5911,1.5911,1.5912,1.5912,0,1.5504,1.5519,1.5515,1.5559,1.5577,1.5583,1.5634,1.5646,1.5678,1.5711,1.5727,1.5766,1.58,1.5805,1.5836,1.5824,1.5834,1.5862,1.5896,1.5853,1.5844,1.584,1.5906,1.5907,1.5908,1.5909,0,0,1.541,1.5481,1.5479,1.5501,1.5551,1.5565,1.5574,1.5606,1.5617,1.5648,1.5659,1.5689,1.5716,1.5737,1.5771,1.5773,1.5742,1.5802,1.5804,1.5791,1.5734,1.5714,1.5708,1.5765,1.5765,1.5764,1.5732,0,1.5368,1.5388,1.5432,1.5438,1.5455,1.5508,1.5516,1.5549,1.5581,1.56,1.5635,1.5656,1.5689,1.5703,1.5707,1.5745,1.5732,1.5748,1.5778,1.5778,1.5767,1.5703,1.5682,1.5649,1.5728,1.5728,1.5727,0,1.5323,1.535,1.5358,1.5409,1.5418,1.5424,1.5459,1.5476,1.5514,1.5538,1.5562,1.56,1.5615,1.5645,1.5667,1.5677,1.5692,1.5712,1.5712,1.5718,1.5751,1.5709,1.564,1.5635,1.5722,1.5722,1.5722,0,1.5255,1.5295,1.5305,1.5322,1.5381,1.5385,1.541,1.545,1.5467,1.5497,1.551,1.5541,1.5558,1.5582,1.5629,1.5646,1.5646,1.568,1.5668,1.5666,1.5666,1.5666,1.56,1.5673,1.5673,1.5673,1.5673,0,1.5206,1.5209,1.5276,1.5282,1.5288,1.5339,1.5344,1.5374,1.541,1.5424,1.5472,1.5485,1.5544,1.5564,1.56,1.5614,1.5621,1.5642,1.5652,1.5638,1.5636,1.565,1.5654,1.5672,1.5672,1.5672,1.5672,0,1.5132,1.5177,1.5192,1.5247,1.5261,1.5263,1.5311,1.532,1.5355,1.5372,1.538,1.5434,1.546,1.5509,1.5548,1.5573,1.558,1.5596,1.5567,1.5573,1.5559,1.556,1.5501,1.5496,1.557,1.5569,1.5568,0,1.5098,1.5102,1.5157,1.517,1.5194,1.5213,1.5231,1.5282,1.5299,1.5344,1.5348,1.5378,1.5405,1.5445,1.5489,1.552,1.5538,1.5515,1.5543,1.553,1.554,1.554,1.5542,1.5509,1.5508,1.5507,1.5507,0,1.5034,1.5056,1.508,1.5111,1.5131,1.5158,1.5188,1.5196,1.5254,1.5271,1.5298,1.5319,1.536,1.539,1.5427,1.5455,1.5491,1.5497,1.5496,1.5484,1.5467,1.5478,1.5551,1.5499,1.5499,1.55,1.55,1.5501,1.4981,1.4987,1.5028,1.5053,1.508,1.5108,1.5119,1.5155,1.5179,1.5216,1.5244,1.527,1.531,1.5365,1.539,1.5412,1.5429,1.5427,1.5427,1.5426,1.5421,1.5462,1.5419,1.5419,1.5419,1.5419,1.542,0,1.4921,1.4949,1.4972,1.5012,1.5032,1.5063,1.5098,1.5113,1.5135,1.5169,1.5194,1.5227,1.5256,1.5302,1.5336,1.5344,1.5362,1.5352,1.5352,1.5359,1.5403,1.5402,1.5337,1.5337,1.5337,1.5337,1.5337,1.5337,1.4892,1.4905,1.4932,1.496,1.4989,1.5014,1.5032,1.5058,1.5086,1.5119,1.5143,1.5173,1.5213,1.525,1.5279,1.5292,1.5303,1.5288,1.5306,1.5347,1.5355,1.5363,1.5361,1.5289,1.5289,1.526,1.526,1.5259]}]]